Location: Sungai Dangang
(2.7500°N, 113.8333°E)
Time: 06:13:50
(UTC+00:00)

ATLAS 3B R/B - Pass Details

Date: 16 May 2021
Orbit: 1006 x 1189 km, 63.8° (Epoch: 13 June)

Event Time Altitude Azimuth Distance (km) Brightness Sun altitude
Exits shadow 20:02:11 54° 146° (SE) 1,205 2.9 -31.4°
Maximum altitude 20:03:05 59° 112° (ESE) 1,148 2.9 -31.2°
Drops below altitude 10° 20:09:26 10° 34° (NE) 2,771 5.5 -29.8°
Sets 20:12:04 0° 30° (NNE) 3,725 6.3 -29.2°
